星链-5028 (STARLINK-5028 )

导读 | 星芒AI

STARLINK-5028 是 SpaceX 星链计划中的一颗低轨通信卫星,属于第 14 批组网发射的卫星之一。该卫星运行在约 550 公里的高度,旨在为全球用户提供高速互联网服务。作为星链网络的重要组成部分,STARLINK-5028 采用先进推进系统和激光通信技术,提升网络稳定性和数据传输效率。其部署有助于扩大星链在偏远地区的覆盖能力,支持全球数百万用户接入互联网。

基本信息
目录编号:
53886
目录名称:
STARLINK-5028
国际标识:
2022-119A
轨道中心:
EARTH
卫星名称:
星链-5028
卫星全名:
星链-5028 (STARLINK-5028 )
卫星状态:
在轨 (已飞行1184 天)
发射日期:
2022-09-24 UTC
国别 :
美国 (US)
星等 :
--
轨道信息
数据来源 国际轨道数据 AOE轨道数据
星历时间 2025-12-21T11:27:50+0800
6小时前
查看轨道信息
2025-12-16T20:00:00+0800
4天前
查看轨道信息
半长轴 6917.894km 6917.828km
偏心率 0.0001435 0.0001423
轨道倾角 53.219° 53.218°
近地点辐角 91.094° 100.659°
升交点赤经 316.957° 337.805°
平近点角 269.021° 218.555°
近地点 538.764km 538.708km
远地点 540.75km 540.678km
周期 95.438分钟 95.436分钟
每日圈数 15.088358 15.088572
详细信息
固有亮度:
5
最大亮度:
2.5
卫星平台:
Starlink v1.5
覆盖范围:
全球
运营商:
太空探索技术公司
运营商所在国:
美国
制造商(研发单位):
太空探索技术公司
制造商所在国:
美国
使用方式:
暂无
卫星简介
星链(Starlink)计划是由太空探索技术公司(SpaceX)提出的一个巨型低轨卫星互联网星座项目,计划在2019年至2024年间在太空搭建由约1.2万颗卫星组成的“星链”网络,其中1584颗将部署在地球上空550千米处的近地轨道,并从2020年开始工作。该卫星仍在工作。
2D轨道图
3D轨道图
轨道高度分析图
轨道倾角分析图
轨道综合分析图
查看轨道综合分析图